Nautilus — OUYX2 — position and weather

sailwx.info

Track history (hours):
 
Tides and Currents Weather Stations Pressure Air Temp Water Temp Dewpoint Dewpoint Depression Visibility Wind Speed Wind Dir Waves Ship Positions

Nautilus

Last reported at 2014-Jul-29 16:33 UTC. Time now 2014-Jul-29 16:58 UTC.
Position N 51°21' E 003°46'.

Length 120 m; draft 6.7 m.

Type: Ship (hazmat cat C). MMSI: 219425000.

Date/timePositionNaut miles runAvg speedWind from/ knotsBaromVisibWave heightAir tempDewpointWater temp
2014-Jul-29 16:33N 51°21' E 003°46'0 0.0
2014-Jul-29 15:33N 51°21' E 003°46'0 0.0
2014-Jul-29 14:33N 51°21' E 003°46'0 0.0
2014-Jul-29 13:33N 51°21' E 003°46'0 0.0
2014-Jul-29 12:33N 51°21' E 003°46'0 0.0
2014-Jul-29 11:33N 51°21' E 003°46'0 0.0
2014-Jul-29 10:33N 51°21' E 003°46'0 0.0
2014-Jul-29 09:30N 51°21' E 003°46'0 0.0
2014-Jul-29 08:30N 51°21' E 003°46'0 0.0
2014-Jul-29 07:33N 51°21' E 003°46'0 0.0
2014-Jul-29 06:33N 51°21' E 003°46'0 0.0
2014-Jul-29 05:30N 51°21' E 003°46'0 0.0
2014-Jul-29 04:33N 51°21' E 003°46'0 0.0
2014-Jul-29 03:33N 51°21' E 003°46'0 0.0
2014-Jul-29 02:33N 51°21' E 003°46'0 0.3
2014-Jul-29 01:33N 51°21' E 003°46'1111.1
2014-Jul-29 00:33N 51°27' E 003°31'1312.9
2014-Jul-28 23:33N 51°38' E 003°19'7 7.4
2014-Jul-28 22:33N 51°45' E 003°17'4 1.8
2014-Jul-28 20:30N 51°47' E 003°22'0 0.0
2014-Jul-28 19:27N 51°47' E 003°22'0 0.2
2014-Jul-28 18:33N 51°47' E 003°22'0 0.0
2014-Jul-28 17:15N 51°47' E 003°22'0 0.1
2014-Jul-28 15:30N 51°47' E 003°22'10611.8
2014-Jul-28 06:31N 53°24' E 004°32'3612.3
2014-Jul-28 03:33N 53°59' E 004°51'1312.7
2014-Jul-28 02:33N 54°10' E 005°00'1412.8
2014-Jul-28 01:27N 54°22' E 005°14'5112.6
2014-Jul-27 21:21N 55°05' E 006°02'1012.6
2014-Jul-27 20:32N 55°13' E 006°12'1212.5
2014-Jul-27 19:33N 55°24' E 006°24'18112.0
2014-Jul-27 04:24N 57°41' E 009°58'1112.5
2014-Jul-27 03:33N 57°46' E 010°16'1312.7
2014-Jul-27 02:33N 57°49' E 010°40'1212.0
2014-Jul-27 01:33N 57°49' E 011°02'1212.2
2014-Jul-27 00:33N 57°41' E 011°20'1211.6
2014-Jul-26 23:33N 57°37' E 011°40'8 7.1
2014-Jul-26 22:28N 57°41' E 011°52'0 0.0
2014-Jul-26 21:31N 57°41' E 011°52'0 0.0
2014-Jul-26 20:31N 57°41' E 011°52'0 0.0
2014-Jul-26 19:31N 57°41' E 011°52'0 0.0
2014-Jul-26 18:31N 57°41' E 011°52'0 0.0
2014-Jul-26 17:31N 57°41' E 011°52'0 0.0
2014-Jul-26 16:31N 57°41' E 011°52'0 0.0
2014-Jul-26 15:28N 57°41' E 011°52'0 0.0
2014-Jul-26 14:31N 57°41' E 011°52'0 0.0
2014-Jul-26 13:31N 57°41' E 011°52'0 0.0
2014-Jul-26 12:31N 57°41' E 011°52'0 0.0
2014-Jul-26 11:31N 57°41' E 011°52'0 0.0
2014-Jul-26 10:31N 57°41' E 011°52'0 0.0
2014-Jul-26 09:31N 57°41' E 011°52'0 0.0
2014-Jul-26 08:31N 57°41' E 011°52'0 0.0
2014-Jul-26 07:31N 57°41' E 011°52'0 0.1
2014-Jul-26 06:33N 57°41' E 011°52'8 8.2
2014-Jul-26 05:34N 57°36' E 011°40'3 2.6
2014-Jul-26 04:33N 57°34' E 011°40'0 0.0
2014-Jul-26 03:33N 57°34' E 011°40'0 0.0
2014-Jul-26 02:33N 57°34' E 011°40'0 0.0
2014-Jul-26 01:33N 57°34' E 011°40'0 0.0
2014-Jul-26 00:30N 57°34' E 011°40'6 6.9
2014-Jul-25 23:33N 57°27' E 011°39'1514.8
2014-Jul-25 22:33N 57°12' E 011°42'1414.5
2014-Jul-25 21:33N 56°58' E 011°46'1414.1
2014-Jul-25 20:33N 56°44' E 011°52'1514.2
2014-Jul-25 19:32N 56°35' E 011°32'1414.3
2014-Jul-25 18:33N 56°26' E 011°12'1413.1
2014-Jul-25 17:27N 56°16' E 010°53'23 2.1
2014-Jul-25 06:32N 56°09' E 010°14'6 5.6
2014-Jul-25 05:33N 56°08' E 010°23'12 9.8
2014-Jul-25 04:19N 56°06' E 010°45'911.9
2014-Jul-25 03:33N 56°14' E 010°51'1312.1
2014-Jul-25 02:30N 56°24' E 011°07'1111.8
2014-Jul-25 01:33N 56°27' E 011°26'1211.6
2014-Jul-25 00:33N 56°24' E 011°47'1211.9
2014-Jul-24 23:34N 56°18' E 012°05'1212.1
2014-Jul-24 22:33N 56°11' E 012°22'1313.1
2014-Jul-24 21:34N 56°02' E 012°40'1313.4
2014-Jul-24 20:33N 55°49' E 012°44'9 8.5
2014-Jul-24 19:32N 55°41' E 012°38'0 0.0
2014-Jul-24 18:32N 55°41' E 012°38'0 0.0
2014-Jul-24 17:32N 55°41' E 012°38'0 0.0
2014-Jul-24 16:32N 55°41' E 012°38'0 0.0
2014-Jul-24 15:32N 55°41' E 012°38'0 0.0
2014-Jul-24 14:32N 55°41' E 012°38'0 0.0
2014-Jul-24 13:32N 55°41' E 012°38'0 0.0
2014-Jul-24 12:32N 55°41' E 012°38'1 1.1
2014-Jul-24 11:33N 55°40' E 012°40'1010.0
2014-Jul-24 10:34N 55°31' E 012°42'1111.3
2014-Jul-24 09:33N 55°19' E 012°40'1212.4
2014-Jul-24 08:33N 55°07' E 012°41'1212.2
2014-Jul-24 07:33N 54°55' E 012°43'1111.4
2014-Jul-24 06:33N 54°44' E 012°39'1212.4
2014-Jul-24 05:33N 54°37' E 012°22'1212.4
2014-Jul-24 04:33N 54°26' E 012°11'1212.5
2014-Jul-24 03:34N 54°25' E 011°50'1312.6
2014-Jul-24 02:33N 54°30' E 011°30'1312.6
2014-Jul-24 01:34N 54°35' E 011°11'1312.8
2014-Jul-24 00:34N 54°34' E 010°48'1313.4
2014-Jul-23 23:33N 54°31' E 010°26'46 7.4
2014-Jul-23 17:24N 54°06' E 009°20'8 8.9
2014-Jul-23 16:27N 53°58' E 009°16'6 7.1
2014-Jul-23 15:33N 53°54' E 009°09'2 1.5
2014-Jul-23 14:31N 53°53' E 009°06'4 4.5
2014-Jul-23 13:33N 53°51' E 008°59'9 9.3
2014-Jul-23 12:34N 53°52' E 008°44'1010.0
2014-Jul-23 11:33N 53°58' E 008°30'1211.9
2014-Jul-23 10:33N 53°60' E 008°10'1312.7
2014-Jul-23 09:33N 53°57' E 007°49'1413.9
2014-Jul-23 08:34N 53°54' E 007°26'1414.1
2014-Jul-23 07:33N 53°51' E 007°03'1414.4
2014-Jul-23 06:33N 53°48' E 006°39'1514.7
2014-Jul-23 05:33N 53°44' E 006°15'1514.7
2014-Jul-23 04:33N 53°39' E 005°51'1514.6
2014-Jul-23 03:33N 53°35' E 005°28'1514.7
2014-Jul-23 02:33N 53°30' E 005°05'1414.3
2014-Jul-23 01:33N 53°23' E 004°43'1514.8
2014-Jul-23 00:32N 53°10' E 004°31'1414.5
2014-Jul-22 23:33N 52°57' E 004°20'1413.9
2014-Jul-22 22:34N 52°45' E 004°09'1413.6
2014-Jul-22 21:33N 52°34' E 003°57'1313.1
2014-Jul-22 20:33N 52°21' E 003°53'1312.7
2014-Jul-22 19:34N 52°08' E 003°54'9 8.7
2014-Jul-22 18:34N 52°00' E 004°01'1312.9
2014-Jul-22 17:33N 51°54' E 004°18'1 0.6
2014-Jul-22 16:28N 51°53' E 004°18'0 0.0
2014-Jul-22 15:28N 51°53' E 004°18'0 0.0
2014-Jul-22 14:28N 51°53' E 004°18'0 0.0
2014-Jul-22 13:31N 51°53' E 004°18'0 0.0
2014-Jul-22 12:31N 51°53' E 004°18'0 0.0
2014-Jul-22 11:31N 51°53' E 004°18'0 0.0
2014-Jul-22 10:28N 51°53' E 004°18'0 0.0
2014-Jul-22 09:28N 51°53' E 004°18'0 0.0
2014-Jul-22 08:28N 51°53' E 004°18'0 0.0
2014-Jul-22 07:28N 51°53' E 004°18'0 0.0
2014-Jul-22 06:32N 51°53' E 004°18'0 0.0
2014-Jul-22 05:31N 51°53' E 004°18'0 0.0
2014-Jul-22 04:19N 51°53' E 004°18'0 0.0
2014-Jul-22 03:31N 51°53' E 004°18'0 0.0
2014-Jul-22 02:25N 51°53' E 004°18'0 0.0
2014-Jul-22 01:28N 51°53' E 004°18'0 0.0
2014-Jul-22 00:31N 51°53' E 004°18'0 0.0
2014-Jul-21 23:31N 51°53' E 004°18'0 0.0
2014-Jul-21 22:28N 51°53' E 004°18'0 0.0
2014-Jul-21 21:31N 51°53' E 004°18'0 0.0
2014-Jul-21 20:31N 51°53' E 004°18'0 0.0
2014-Jul-21 20:16N 51°53' E 004°18'0 0.0
2014-Jul-21 19:31N 51°53' E 004°18'0 0.0
2014-Jul-21 18:32N 51°53' E 004°18'0 0.0
2014-Jul-21 16:25N 51°53' E 004°18'0 0.0
2014-Jul-21 15:31N 51°53' E 004°18'0 0.0
2014-Jul-21 14:31N 51°53' E 004°18'0 0.0
2014-Jul-21 13:31N 51°53' E 004°18'0 0.0
2014-Jul-21 12:28N 51°53' E 004°18'0 0.0
2014-Jul-21 11:28N 51°53' E 004°18'0 0.0
2014-Jul-21 10:28N 51°53' E 004°18'0 0.0
2014-Jul-21 09:22N 51°53' E 004°18'0 0.0
2014-Jul-21 08:25N 51°53' E 004°18'0 0.0
2014-Jul-21 07:31N 51°53' E 004°18'0 0.0
2014-Jul-21 06:31N 51°53' E 004°18'0 0.0
2014-Jul-21 05:28N 51°53' E 004°18'0 0.0
2014-Jul-21 04:29N 51°53' E 004°18'1 0.9
2014-Jul-21 03:33N 51°54' E 004°18'8 8.1
2014-Jul-21 02:33N 51°58' E 004°07'1110.9
2014-Jul-21 01:33N 51°59' E 003°50'6 6.3
2014-Jul-21 00:33N 52°03' E 003°41'5 4.5
2014-Jul-20 23:30N 52°07' E 003°41'0 0.0
2014-Jul-20 22:33N 52°07' E 003°40'0 0.0
2014-Jul-20 21:21N 52°07' E 003°40'0 0.0
2014-Jul-20 20:33N 52°08' E 003°40'0 0.0
2014-Jul-20 19:24N 52°08' E 003°40'0 0.1
2014-Jul-20 18:33N 52°07' E 003°40'0 0.0
2014-Jul-20 17:18N 52°07' E 003°40'0 0.0
2014-Jul-20 16:33N 52°07' E 003°40'0 0.0
2014-Jul-20 15:33N 52°07' E 003°40'0 0.0
2014-Jul-20 14:33N 52°07' E 003°40'0 0.0
2014-Jul-20 13:21N 52°07' E 003°40'0 0.0
2014-Jul-20 12:33N 52°07' E 003°40'0 0.1
2014-Jul-20 11:30N 52°07' E 003°40'0 0.0
2014-Jul-20 10:33N 52°07' E 003°40'0 0.0
2014-Jul-20 08:33N 52°08' E 003°40'0 0.0
2014-Jul-20 07:30N 52°08' E 003°40'0 0.0
2014-Jul-20 06:33N 52°08' E 003°40'0 0.1
2014-Jul-20 05:30N 52°07' E 003°40'0 0.1
2014-Jul-20 04:33N 52°07' E 003°40'0 0.0
2014-Jul-20 03:33N 52°07' E 003°40'0 0.0
2014-Jul-20 02:33N 52°07' E 003°40'0 0.0
2014-Jul-20 01:33N 52°07' E 003°40'0 0.0
2014-Jul-20 00:33N 52°07' E 003°40'0 0.1
2014-Jul-19 23:30N 52°07' E 003°41'5 4.8
2014-Jul-19 22:33N 52°10' E 003°46'1111.5
2014-Jul-19 21:33N 52°22' E 003°49'1211.8
2014-Jul-19 20:33N 52°33' E 003°53'2711.7
2014-Jul-19 18:13N 52°60' E 004°05'1013.2
2014-Jul-19 17:28N 53°06' E 004°18'1213.3
2014-Jul-19 16:33N 53°16' E 004°29'  
Track history (hours):
 
Tides and Currents Weather Stations Pressure Air Temp Water Temp Dewpoint Dewpoint Depression Visibility Wind Speed Wind Dir Waves Ship Positions

Nautilus

Last reported at 2014-Jul-29 16:33 UTC. Time now 2014-Jul-29 16:58 UTC.
Position N 51°21' E 003°46'.

Length 120 m; draft 6.7 m.

Type: Ship (hazmat cat C). MMSI: 219425000.

Date/timePositionNaut miles runAvg speedWind from/ knotsBaromVisibWave heightAir tempDewpointWater temp
2014-Jul-29 16:33N 51°21' E 003°46'0 0.0
2014-Jul-29 15:33N 51°21' E 003°46'0 0.0
2014-Jul-29 14:33N 51°21' E 003°46'0 0.0
2014-Jul-29 13:33N 51°21' E 003°46'0 0.0
2014-Jul-29 12:33N 51°21' E 003°46'0 0.0
2014-Jul-29 11:33N 51°21' E 003°46'0 0.0
2014-Jul-29 10:33N 51°21' E 003°46'0 0.0
2014-Jul-29 09:30N 51°21' E 003°46'0 0.0
2014-Jul-29 08:30N 51°21' E 003°46'0 0.0
2014-Jul-29 07:33N 51°21' E 003°46'0 0.0
2014-Jul-29 06:33N 51°21' E 003°46'0 0.0
2014-Jul-29 05:30N 51°21' E 003°46'0 0.0
2014-Jul-29 04:33N 51°21' E 003°46'0 0.0
2014-Jul-29 03:33N 51°21' E 003°46'0 0.0
2014-Jul-29 02:33N 51°21' E 003°46'0 0.3
2014-Jul-29 01:33N 51°21' E 003°46'1111.1
2014-Jul-29 00:33N 51°27' E 003°31'1312.9
2014-Jul-28 23:33N 51°38' E 003°19'7 7.4
2014-Jul-28 22:33N 51°45' E 003°17'4 1.8
2014-Jul-28 20:30N 51°47' E 003°22'0 0.0
2014-Jul-28 19:27N 51°47' E 003°22'0 0.2
2014-Jul-28 18:33N 51°47' E 003°22'0 0.0
2014-Jul-28 17:15N 51°47' E 003°22'0 0.1
2014-Jul-28 15:30N 51°47' E 003°22'10611.8
2014-Jul-28 06:31N 53°24' E 004°32'3612.3
2014-Jul-28 03:33N 53°59' E 004°51'1312.7
2014-Jul-28 02:33N 54°10' E 005°00'1412.8
2014-Jul-28 01:27N 54°22' E 005°14'5112.6
2014-Jul-27 21:21N 55°05' E 006°02'1012.6
2014-Jul-27 20:32N 55°13' E 006°12'1212.5
2014-Jul-27 19:33N 55°24' E 006°24'18112.0
2014-Jul-27 04:24N 57°41' E 009°58'1112.5
2014-Jul-27 03:33N 57°46' E 010°16'1312.7
2014-Jul-27 02:33N 57°49' E 010°40'1212.0
2014-Jul-27 01:33N 57°49' E 011°02'1212.2
2014-Jul-27 00:33N 57°41' E 011°20'1211.6
2014-Jul-26 23:33N 57°37' E 011°40'8 7.1
2014-Jul-26 22:28N 57°41' E 011°52'0 0.0
2014-Jul-26 21:31N 57°41' E 011°52'0 0.0
2014-Jul-26 20:31N 57°41' E 011°52'0 0.0
2014-Jul-26 19:31N 57°41' E 011°52'0 0.0
2014-Jul-26 18:31N 57°41' E 011°52'0 0.0
2014-Jul-26 17:31N 57°41' E 011°52'0 0.0
2014-Jul-26 16:31N 57°41' E 011°52'0 0.0
2014-Jul-26 15:28N 57°41' E 011°52'0 0.0
2014-Jul-26 14:31N 57°41' E 011°52'0 0.0
2014-Jul-26 13:31N 57°41' E 011°52'0 0.0
2014-Jul-26 12:31N 57°41' E 011°52'0 0.0
2014-Jul-26 11:31N 57°41' E 011°52'0 0.0
2014-Jul-26 10:31N 57°41' E 011°52'0 0.0
2014-Jul-26 09:31N 57°41' E 011°52'0 0.0
2014-Jul-26 08:31N 57°41' E 011°52'0 0.0
2014-Jul-26 07:31N 57°41' E 011°52'0 0.1
2014-Jul-26 06:33N 57°41' E 011°52'8 8.2
2014-Jul-26 05:34N 57°36' E 011°40'3 2.6
2014-Jul-26 04:33N 57°34' E 011°40'0 0.0
2014-Jul-26 03:33N 57°34' E 011°40'0 0.0
2014-Jul-26 02:33N 57°34' E 011°40'0 0.0
2014-Jul-26 01:33N 57°34' E 011°40'0 0.0
2014-Jul-26 00:30N 57°34' E 011°40'6 6.9
2014-Jul-25 23:33N 57°27' E 011°39'1514.8
2014-Jul-25 22:33N 57°12' E 011°42'1414.5
2014-Jul-25 21:33N 56°58' E 011°46'1414.1
2014-Jul-25 20:33N 56°44' E 011°52'1514.2
2014-Jul-25 19:32N 56°35' E 011°32'1414.3
2014-Jul-25 18:33N 56°26' E 011°12'1413.1
2014-Jul-25 17:27N 56°16' E 010°53'23 2.1
2014-Jul-25 06:32N 56°09' E 010°14'6 5.6
2014-Jul-25 05:33N 56°08' E 010°23'12 9.8
2014-Jul-25 04:19N 56°06' E 010°45'911.9
2014-Jul-25 03:33N 56°14' E 010°51'1312.1
2014-Jul-25 02:30N 56°24' E 011°07'1111.8
2014-Jul-25 01:33N 56°27' E 011°26'1211.6
2014-Jul-25 00:33N 56°24' E 011°47'1211.9
2014-Jul-24 23:34N 56°18' E 012°05'1212.1
2014-Jul-24 22:33N 56°11' E 012°22'1313.1
2014-Jul-24 21:34N 56°02' E 012°40'1313.4
2014-Jul-24 20:33N 55°49' E 012°44'9 8.5
2014-Jul-24 19:32N 55°41' E 012°38'0 0.0
2014-Jul-24 18:32N 55°41' E 012°38'0 0.0
2014-Jul-24 17:32N 55°41' E 012°38'0 0.0
2014-Jul-24 16:32N 55°41' E 012°38'0 0.0
2014-Jul-24 15:32N 55°41' E 012°38'0 0.0
2014-Jul-24 14:32N 55°41' E 012°38'0 0.0
2014-Jul-24 13:32N 55°41' E 012°38'0 0.0
2014-Jul-24 12:32N 55°41' E 012°38'1 1.1
2014-Jul-24 11:33N 55°40' E 012°40'1010.0
2014-Jul-24 10:34N 55°31' E 012°42'1111.3
2014-Jul-24 09:33N 55°19' E 012°40'1212.4
2014-Jul-24 08:33N 55°07' E 012°41'1212.2
2014-Jul-24 07:33N 54°55' E 012°43'1111.4
2014-Jul-24 06:33N 54°44' E 012°39'1212.4
2014-Jul-24 05:33N 54°37' E 012°22'1212.4
2014-Jul-24 04:33N 54°26' E 012°11'1212.5
2014-Jul-24 03:34N 54°25' E 011°50'1312.6
2014-Jul-24 02:33N 54°30' E 011°30'1312.6
2014-Jul-24 01:34N 54°35' E 011°11'1312.8
2014-Jul-24 00:34N 54°34' E 010°48'1313.4
2014-Jul-23 23:33N 54°31' E 010°26'46 7.4
2014-Jul-23 17:24N 54°06' E 009°20'8 8.9
2014-Jul-23 16:27N 53°58' E 009°16'6 7.1
2014-Jul-23 15:33N 53°54' E 009°09'2 1.5
2014-Jul-23 14:31N 53°53' E 009°06'4 4.5
2014-Jul-23 13:33N 53°51' E 008°59'9 9.3
2014-Jul-23 12:34N 53°52' E 008°44'1010.0
2014-Jul-23 11:33N 53°58' E 008°30'1211.9
2014-Jul-23 10:33N 53°60' E 008°10'1312.7
2014-Jul-23 09:33N 53°57' E 007°49'1413.9
2014-Jul-23 08:34N 53°54' E 007°26'1414.1
2014-Jul-23 07:33N 53°51' E 007°03'1414.4
2014-Jul-23 06:33N 53°48' E 006°39'1514.7
2014-Jul-23 05:33N 53°44' E 006°15'1514.7
2014-Jul-23 04:33N 53°39' E 005°51'1514.6
2014-Jul-23 03:33N 53°35' E 005°28'1514.7
2014-Jul-23 02:33N 53°30' E 005°05'1414.3
2014-Jul-23 01:33N 53°23' E 004°43'1514.8
2014-Jul-23 00:32N 53°10' E 004°31'1414.5
2014-Jul-22 23:33N 52°57' E 004°20'1413.9
2014-Jul-22 22:34N 52°45' E 004°09'1413.6
2014-Jul-22 21:33N 52°34' E 003°57'1313.1
2014-Jul-22 20:33N 52°21' E 003°53'1312.7
2014-Jul-22 19:34N 52°08' E 003°54'9 8.7
2014-Jul-22 18:34N 52°00' E 004°01'1312.9
2014-Jul-22 17:33N 51°54' E 004°18'1 0.6
2014-Jul-22 16:28N 51°53' E 004°18'0 0.0
2014-Jul-22 15:28N 51°53' E 004°18'0 0.0
2014-Jul-22 14:28N 51°53' E 004°18'0 0.0
2014-Jul-22 13:31N 51°53' E 004°18'0 0.0
2014-Jul-22 12:31N 51°53' E 004°18'0 0.0
2014-Jul-22 11:31N 51°53' E 004°18'0 0.0
2014-Jul-22 10:28N 51°53' E 004°18'0 0.0
2014-Jul-22 09:28N 51°53' E 004°18'0 0.0
2014-Jul-22 08:28N 51°53' E 004°18'0 0.0
2014-Jul-22 07:28N 51°53' E 004°18'0 0.0
2014-Jul-22 06:32N 51°53' E 004°18'0 0.0
2014-Jul-22 05:31N 51°53' E 004°18'0 0.0
2014-Jul-22 04:19N 51°53' E 004°18'0 0.0
2014-Jul-22 03:31N 51°53' E 004°18'0 0.0
2014-Jul-22 02:25N 51°53' E 004°18'0 0.0
2014-Jul-22 01:28N 51°53' E 004°18'0 0.0
2014-Jul-22 00:31N 51°53' E 004°18'0 0.0
2014-Jul-21 23:31N 51°53' E 004°18'0 0.0
2014-Jul-21 22:28N 51°53' E 004°18'0 0.0
2014-Jul-21 21:31N 51°53' E 004°18'0 0.0
2014-Jul-21 20:31N 51°53' E 004°18'0 0.0
2014-Jul-21 20:16N 51°53' E 004°18'0 0.0
2014-Jul-21 19:31N 51°53' E 004°18'0 0.0
2014-Jul-21 18:32N 51°53' E 004°18'0 0.0
2014-Jul-21 16:25N 51°53' E 004°18'0 0.0
2014-Jul-21 15:31N 51°53' E 004°18'0 0.0
2014-Jul-21 14:31N 51°53' E 004°18'0 0.0
2014-Jul-21 13:31N 51°53' E 004°18'0 0.0
2014-Jul-21 12:28N 51°53' E 004°18'0 0.0
2014-Jul-21 11:28N 51°53' E 004°18'0 0.0
2014-Jul-21 10:28N 51°53' E 004°18'0 0.0
2014-Jul-21 09:22N 51°53' E 004°18'0 0.0
2014-Jul-21 08:25N 51°53' E 004°18'0 0.0
2014-Jul-21 07:31N 51°53' E 004°18'0 0.0
2014-Jul-21 06:31N 51°53' E 004°18'0 0.0
2014-Jul-21 05:28N 51°53' E 004°18'0 0.0
2014-Jul-21 04:29N 51°53' E 004°18'1 0.9
2014-Jul-21 03:33N 51°54' E 004°18'8 8.1
2014-Jul-21 02:33N 51°58' E 004°07'1110.9
2014-Jul-21 01:33N 51°59' E 003°50'6 6.3
2014-Jul-21 00:33N 52°03' E 003°41'5 4.5
2014-Jul-20 23:30N 52°07' E 003°41'0 0.0
2014-Jul-20 22:33N 52°07' E 003°40'0 0.0
2014-Jul-20 21:21N 52°07' E 003°40'0 0.0
2014-Jul-20 20:33N 52°08' E 003°40'0 0.0
2014-Jul-20 19:24N 52°08' E 003°40'0 0.1
2014-Jul-20 18:33N 52°07' E 003°40'0 0.0
2014-Jul-20 17:18N 52°07' E 003°40'0 0.0
2014-Jul-20 16:33N 52°07' E 003°40'0 0.0
2014-Jul-20 15:33N 52°07' E 003°40'0 0.0
2014-Jul-20 14:33N 52°07' E 003°40'0 0.0
2014-Jul-20 13:21N 52°07' E 003°40'0 0.0
2014-Jul-20 12:33N 52°07' E 003°40'0 0.1
2014-Jul-20 11:30N 52°07' E 003°40'0 0.0
2014-Jul-20 10:33N 52°07' E 003°40'0 0.0
2014-Jul-20 08:33N 52°08' E 003°40'0 0.0
2014-Jul-20 07:30N 52°08' E 003°40'0 0.0
2014-Jul-20 06:33N 52°08' E 003°40'0 0.1
2014-Jul-20 05:30N 52°07' E 003°40'0 0.1
2014-Jul-20 04:33N 52°07' E 003°40'0 0.0
2014-Jul-20 03:33N 52°07' E 003°40'0 0.0
2014-Jul-20 02:33N 52°07' E 003°40'0 0.0
2014-Jul-20 01:33N 52°07' E 003°40'0 0.0
2014-Jul-20 00:33N 52°07' E 003°40'0 0.1
2014-Jul-19 23:30N 52°07' E 003°41'5 4.8
2014-Jul-19 22:33N 52°10' E 003°46'1111.5
2014-Jul-19 21:33N 52°22' E 003°49'1211.8
2014-Jul-19 20:33N 52°33' E 003°53'2711.7
2014-Jul-19 18:13N 52°60' E 004°05'1013.2
2014-Jul-19 17:28N 53°06' E 004°18'1213.3
2014-Jul-19 16:33N 53°16' E 004°29'  

Dump ship's entire track history